Regional Weather Roundup
Issued by NWS

Home | Current Version | Previous Version | Graphics & Text | Print | Product List | Glossary On
Versions: 1 2 3 4 5 6 7 8 9 10 11 12 13 14 15 16 17 18 19 20 21 22 23 24 25 26 27 28 29 30 31 32 33 34 35 36 37 38 39 40 41 42 43 44 45 46 47 48 49 50
000
ASUS43 KTOP 280359
RWRKS

WEATHER ROUNDUP FOR KANSAS
NATIONAL WEATHER SERVICE GOODLAND KS
1000 PM CST THU NOV 27 2014

NOTE:  "FAIR" INDICATES FEW OR NO CLOUDS BELOW 12,000 FEET WITH NO
SIGNIFICANT WEATHER AND/OR OBSTRUCTIONS TO VISIBILITY.

KSZ001>006-013>018-027>032-041>047-280500-
NORTHWEST KANSAS

CITY           SKY/WX    TMP DP  RH WIND       PRES   REMARKS
GOODLAND       PTCLDY    47  27  45 W13       30.05S
HAYS           CLEAR     36  18  48 S10       30.06F WCI  28
HILL CITY      CLEAR     42  25  50 SW7       30.03F
RUSSELL        CLEAR     40  23  50 S20       30.04F WCI  30
$$

KSZ061>065-074>080-084>089-280500-
SOUTHWEST KANSAS

CITY           SKY/WX    TMP DP  RH WIND       PRES   REMARKS
DODGE CITY     CLEAR     41  23  48 S16       30.10F
ELKHART          N/A     49  29  46 SW12        N/A
GARDEN CITY    CLEAR     40  29  64 S9        30.07F
GREAT BEND     CLEAR     39  21  48 S15       30.10F WCI  31
LIBERAL        PTCLDY    43  27  52 S13       30.12F
$$

KSZ066>073-081>083-090>101-280500-
SOUTHEAST KANSAS

CITY           SKY/WX    TMP DP  RH WIND       PRES   REMARKS
CHANUTE        CLEAR     31  24  75 SE8       30.29F
COFFEYVILLE    PTCLDY    33  25  72 SE6       30.30F
HUTCHINSON     CLEAR     41  22  46 S15       30.15F
MEDICINE LODGE   N/A     39  25  57 S12       30.16F WCI  32
NEWTON         CLEAR     36  18  48 S13       30.19F WCI  27
PARSONS        PTCLDY    36  25  64 SE5       30.30F
WICHITA INTL   PTCLDY    40  21  46 S16       30.19F WCI  31
WICHITA JABRA  PTCLDY    36  21  54 S10       30.20F WCI  28
WINFIELD       PTCLDY    39  22  50 S15       30.23F WCI  31
$$

KSZ007>012-019>026-033>040-048>060-102>105-280500-
NORTHEAST KANSAS

CITY           SKY/WX    TMP DP  RH WIND       PRES   REMARKS
CONCORDIA      CLEAR     36  18  48 S16       30.11F WCI  26
EMPORIA        CLEAR     31  21  66 SE13      30.22F WCI  21
LAWRENCE       CLEAR     27  21  78 SE8       30.28F
MANHATTAN      CLEAR     34  20  56 S7        30.20F
OLATHE IND     CLEAR     30  22  72 SE10      30.29F WCI  21
OLATHE EXE     CLEAR     29  23  78 SE7       30.28F
SALINA         CLEAR     37  19  48 SE12      30.13F WCI  29
TOPEKA BILLARD CLEAR     34  22  61 SE6       30.27F
TOPEKA FORBES  CLEAR     33  22  63 SE9       30.25F
$$


USA.gov is the U.S. government's official web portal to all federal, state and local government web resources and services.